Location: Berville
(49.1893°N, 2.0748°E)
Time: 18:55:30
(UTC+00:00)

FENGYUN 1C DEB - Pass Details

Date: 04 March 2024
Orbit: 768 x 960 km, 99.0° (Epoch: 13 April)

Event Time Altitude Azimuth Distance (km) Brightness Sun altitude
Exits shadow 19:45:50 34° 74° (ENE) 1,517 ? -21.1°
Maximum altitude 19:46:25 35° 62° (ENE) 1,495 ? -21.2°
Drops below altitude 10° 19:51:42 10° 359° (N) 2,643 ? -22.1°
Sets 19:54:17 0° 351° (N) 3,566 ? -22.5°
